User: anonymous   Login
Location: Notre Dame Regional High School Observatory
(37.3056°N, 89.6097°W)
Time: 16:17:33
(UTC-05:00)
Language:

ATLAS 3B R/B - Orbit

View from above orbital plane
View from above orbital plane
View from above satellite
View from above satellite

Ground track
Ground track

The orbit data is extracted from the following two-line orbital elements,

1 28538U 05004B   14292.86140461 0.00000050  00000-0  77110-4 0    01
2 28538  63.8180 225.8672 0206000 240.4969 119.5031 13.43035817    03
Epoch (UTC): 19 October 2014 20:40:25
Eccentricity: 0.0206000
inclination: 63.8180°
perigee height: 944 km
apogee height: 1252 km
right ascension of ascending node: 225.8672°
argument of perigee: 240.4969°
revolutions per day: 13.43035817
mean anomaly at epoch: 119.5031°
orbit number at epoch: 0

The dashed part of the orbit path shows where the satellite is in the earth's shadow,  

DLR